User: anonymous   Login
Location: Unspecified
(0.0000°N, 0.0000°E)
Time: 05:41:02
(UTC+00:00)
Language:

PRISMA (TANGO) - Orbit

View from above orbital plane
View from above orbital plane
View from above satellite
View from above satellite

Ground track
Ground track

The orbit data is extracted from the following two-line orbital elements,

1 36827U 10028F   18267.52090283 +.00000019 +00000-0 +19045-4 0  9993
2 36827 098.5056 078.2922 0043848 084.0739 276.5446 14.42357888427310
Epoch (UTC): 24 September 2018 12:30:06
Eccentricity: 0.0043848
inclination: 98.5056°
perigee height: 719 km
apogee height: 782 km
right ascension of ascending node: 78.2922°
argument of perigee: 84.0739°
revolutions per day: 14.42357888
mean anomaly at epoch: 276.5446°
orbit number at epoch: 42731

The dashed part of the orbit path shows where the satellite is in the earth's shadow,  

DLR